FENGYUN 1C DEB, 30198

Orbit data source: Space-Track

FENGYUN 1C DEB, 30198 is space debris in SSO originally from a launch on Mon, 10 May 1999 UTC launched from the Taiyaun Space Center, China (TSC). Fengyun 1C debris stems from the Chinese weather satellite Fengyun-1C, which was intentionally destroyed by a Chinese anti-satellite missile in 2007. This event dramatically increased the amount of space debris, with thousands of trackable fragments posing hazards to satellites and human spaceflight. The Fengyun 1C debris cloud has become a focal point in discussions about space sustainability and the need for international regulations to prevent the creation of new debris.

Loading next visibility...
Identifier
30198, 1999-025VF
Orbit
SSO
Country
Flag of CNCN / PRC
Related business
Manufacturer
Unknown
Mission
Spacecraft
Bus & Motor
Unknown
Mass
Unknown
Launch date (UTC)
1999-05-10 (27 years ago)
Launch vehicle
Unknown
Launch site
Taiyaun Space Center, China (TSC)
Object type
Payload
Rocket body
Debris
Shape & HBR
Unknown shape, 0.1 m
Radar Cross Section
Medium (>0.1 m² and <1 m²)

Expand to show TLE details & history
Last TLE update: 9 hours ago

TLE from 9 hours ago
0 FENGYUN 1C DEB
1 30198U 99025VF  26264.10274381  .00002218  00000-0  50934-3 0  9999
2 30198  98.4786  42.3592 0102367  55.6965   0.6617 14.53346395 25926
Epoch: 2026-09-21T02:27Z
TLE epoch observation values (Epoch: 2026-09-21T02:27:57.065Z)
Latitude
55.54469°
Longitude
-7.09496°
Altitude
651.337 km
Speed
7.576 km/s
True Right ascension
01h 59m 31s
True Declination
55° 22' 54"
Sunlit
Object was in full shadow at epoch
Visualization orbit readout
Latitude
Unknown
Longitude
Unknown
Altitude
Unknown
Speed
Unknown
Apparent Right ascension
Unknown
Apparent Declination
Unknown
Sunlit
N/A
Visualization observer readout
Local Sidereal Time
04:58:16
Azimuth
Unknown
Elevation
Unknown
Doppler factor
Unknown
Orbital elements
Apogee altitude
784.42 km
Perigee altitude
639.264 km
Semi-major axis
7,089.979 km
Eccentricity
0.01024
Inclination
98.4786°
RAAN
42.3592°
Arg. of periapsis
55.6965°
True anomaly
0.67542°
Mean anomaly
0.6617°
Eccentric anomaly
0.66854°
Mean motion
3.6356 °/min
Orbital period
99.02 mins
BSTAR
0.00050934
Loading maneuver chart data...
Computing Atmospheric mass density...

Documentation

Showing up to 5 results
|